Flag for Germany Weather past 2 weeks in Hoyerswerda, Saxony, Germany

Now
67 °F

Overcast.


Feels Like: 67 °F
Forecast: 50 / 69 °F
Wind: 3 mph from North

Location: Cottbus

Current Time: May 23, 2015 at 5:27:09 PM

Latest Report: May 23, 2015 at 5:00 PM


Visibility: 22 mi

Pressure: 30.03 "Hg

Humidity: 47%

Dew point: 47 °F

Location of HoyerswerdaLocation

Historic Weather in Hoyerswerda — Graph

°F

Hoyerswerda temperature yesterday

Maximum temperature yesterday: 68 °F (at 5:00 PM)
Minimum temperature yesterday: 35 °F (at 5:00 AM)
Average temperature yesterday: 53 °F

Past Weeks' High & Low Weather Summary

 TemperatureHumidityPressure
High78 °F (May 12, 3:00 PM)100% (May 11, 1:00 AM)30.40 "Hg (May 11, 1:00 AM)
Low34 °F (May 15, 5:00 AM)23% (May 11, 5:00 PM)29.63 "Hg (May 19, 3:00 AM)
Average56 °F63%30.05 "Hg
* Reported May 8 4:00 PM — May 23 4:00 PM, Hoyerswerda, Weather by CustomWeather, © 2015

Note: Actual official high and low records may vary slightly from our data, if they occured in-between our weather recording intervals... More about our weather records

Advertising

Hoyerswerda weather history for previous 24 hours

 ConditionsComfort  
Time TempWeatherWind HumidityBarometerVisibility
4:00 PM
Sat, May 23
68 °FOvercast.2 mph41%30.03 "Hg31 mi
3:00 PM68 °FOvercast.2 mph40%30.04 "Hg37 mi
2:00 PM68 °FPartly sunny.3 mph39%30.05 "Hg34 mi
1:00 PM69 °FScattered clouds.2 mph37%30.07 "Hg34 mi
12:00 PM67 °FScattered clouds.2 mph36%30.09 "Hg43 mi
11:00 AM66 °FOvercast.1 mph41%30.10 "Hg25 mi
10:00 AM64 °FOvercast.1 mph42%30.11 "Hg31 mi
9:00 AM63 °FOvercast.1 mph46%30.11 "Hg25 mi
8:00 AM55 °FOvercast.1 mph69%30.12 "Hg17 mi
7:00 AM50 °FOvercast.1 mph80%30.12 "Hg15 mi
6:00 AM47 °FOvercast.1 mph84%30.12 "Hg13 mi
5:00 AM43 °FOvercast.1 mph92%30.14 "Hg10 mi
4:00 AM41 °FOvercast.1 mph95%30.14 "Hg7 mi
3:00 AM42 °FOvercast.1 mph95%30.16 "Hg9 mi
2:00 AM44 °FOvercast.1 mph90%30.17 "Hg13 mi
1:00 AM44 °FOvercast.1 mph89%30.19 "Hg16 mi
12:00 AM47 °FOvercast.1 mph87%30.19 "Hg16 mi
11:00 PM
Fri, May 22
49 °FOvercast.1 mph81%30.19 "Hg17 mi
10:00 PM53 °FOvercast.1 mph72%30.19 "Hg22 mi
9:00 PM58 °FOvercast.1 mph58%30.19 "Hg25 mi
8:00 PM64 °FOvercast.2 mph39%30.19 "Hg37 mi
7:00 PM66 °FOvercast.2 mph36%30.19 "Hg34 mi
6:00 PM66 °FOvercast.2 mph35%30.20 "Hg34 mi
5:00 PM68 °FOvercast.1 mph34%30.22 "Hg34 mi
Weather by CustomWeather, © 2015

See weather overviewHow to use our weather pages